Orbital Elements at Epoch 2459200.5 (2020-Dec-17.0) TDB
Reference: JPL 34 (heliocentric ecliptic J2000)
Element | Value | Uncertainty (1-sigma) | Units |
e | .1111029007237573 | 1.5423e-08 | |
a | 2.786469868954546 | 9.9768e-09 | au |
q | 2.476884983734348 | 4.2891e-08 | au |
i | 10.00812465920348 | 1.228e-07 | deg |
node | 99.04538311261462 | 1.2597e-06 | deg |
peri | 6.870149190707229 | 1.0838e-05 | deg |
M | 33.98674063631602 | 8.8981e-06 | deg |
tp | 2459040.106423964157 (2020-Jul-09.60642396) | 4.1901e-05 | TDB |
period | 1698.947480453728 4.65 | 9.1244e-06 2.498e-08 | d yr |
n | .2118958968077441 | 1.138e-09 | deg/d |
Q | 3.096054754174744 | 1.1085e-08 | au |
|
| | Orbit Determination Parameters
Additional Information
|